Regional Weather Roundup
Issued by NWS Jackson, KY

Home | Current Version | Previous Version | Graphics & Text | Print | Product List | Glossary On
Versions: 1 2 3 4 5 6 7 8 9 10 11 12 13 14 15 16 17 18 19 20 21 22 23 24 25 26 27 28 29 30 31 32 33 34 35 36 37 38 39 40 41 42 43 44 45 46 47 48 49 50
000
ASUS43 KJKL 021810
RWRJKL

EAST KENTUCKY HOURLY WEATHER ROUNDUP
NATIONAL WEATHER SERVICE JACKSON KY
200 PM EDT TUE SEP 02 2014

NOTE: "FAIR" INDICATES FEW OR NO CLOUDS BELOW 12,000 FEET WITH
NO SIGNIFICANT WEATHER AND/OR OBSTRUCTIONS TO VISIBILITY.

* THESE REPORTS ARE NOT UNDER NWS QUALITY CONTROL AND MAY NOT
  REPORT WEATHER SUCH AS PRECIPITATION AND FOG.

KYZ079-080-083-085-087-088-110-112-115-119-120-021900
...EASTERN KENTUCKY...

CITY           SKY/WX    TMP DP  RH WIND       PRES   REMARKS
JACKSON        PTSUNNY   86  71  60 MISG      30.03F HX  91
6HR MIN TEMP:  73; 6HR MAX TEMP:  86;

LONDON         MOSUNNY   88  69  53 SW15      30.04F HX  92
6HR MIN TEMP:  73; 6HR MAX TEMP:  88;

SOMERSET*      PTSUNNY   86  68  54 W15       30.03S
MONTICELLO*    MOSUNNY   87  72  61 SW16      30.04F HX  93
6HR MIN TEMP:  73; 6HR MAX TEMP:  88;

WILLIAMSBURG*  PTSUNNY   86  70  58 S10       30.04F HX  90
MIDDLESBORO*   MOSUNNY   88  71  57 S9G16     30.06S HX  93
6HR MIN TEMP:  69; 6HR MAX TEMP:  89;

HARLAN APT*    MOCLDY    86  64  48 MISG      30.06F
HAZARD APT*    CLOUDY    86  70  58 SW13G20   30.03F HX  90
BLACK MTN*       N/A     70  68  94 S6          N/A
PIKEVILLE APT* PTSUNNY   84  70  61 SW6       30.04F
BIG SANDY*     CLOUDY    82  72  71 W3        30.02F
MOREHEAD APT*  PTCLDY    82  70  65 S12       30.02S
$$

KYZ035-036-041-042-044-050-067-078-099-021900
...CENTRAL KENTUCKY...

CITY           SKY/WX    TMP DP  RH WIND       PRES   REMARKS
MT STERLING*   PTSUNNY   82  72  69 W9        30.01F
FLEMING/MASON* CLOUDY    77  70  78 SW8       30.00S
DANVILLE*      CLOUDY    84  72  65 SW7       30.02F
RICHMOND*      PTSUNNY   82  72  69 SW3       30.01F
LEXINGTON      PTSUNNY   85  71  63 SW12G21   29.99F HX  90
6HR MIN TEMP:  75; 6HR MAX TEMP:  85; 6HR PCP:  0.01;

FRANKFORT      CLOUDY    83  72  69 SW10      29.97F
6HR MIN TEMP:  70; 6HR MAX TEMP:  83; 6HR PCP:  0.03;

$$

KYZ091>093-OHZ055-061-077-WVZ005-015-034-035-042-021900
...SOUTHERN OHIO/WEST VIRGINIA...

CITY           SKY/WX    TMP DP  RH WIND       PRES   REMARKS
COVINGTON      LGT RAIN  76  69  79 SW7       29.98R
COLUMBUS       PTSUNNY   82  66  58 W10G20    29.93F
DAYTON         CLOUDY    79  66  65 W15       29.97S
WILMINGTON     MOSUNNY   78  67  68 SW9       29.96S
HUNTINGTON     PTSUNNY   83  73  72 SW12G22   29.98F
CHARLESTON     CLOUDY    73  69  87 SW5       29.99F THUNDER
PINEVILLE*     MOSUNNY   88  71  56 MISG      30.11F HX  94
BECKLEY        MOSUNNY   82  65  56 SW12      30.11F
BLUEFIELD      SUNNY     82  66  58 W8        30.15F
$$

VAZ002-007-008-TNZ017-027-036-066-071-021900
...SOUTHWEST VIRGINIA/EAST TENNESSEE...

CITY           SKY/WX    TMP DP  RH WIND       PRES   REMARKS
WISE*          PTSUNNY   81  66  61 S8        30.15F
JONESVILLE*      N/A     88  68  51 S7G18     30.09F HX  91
ABINGDON*      MOSUNNY   84  70  61 W9        30.12F
BRISTOL        MOSUNNY   87  67  51 SW7       30.09F HX  90
KNOXVILLE      MOSUNNY   88  70  55 SW15      30.07F HX  93
OAK RIDGE      MOSUNNY   89  70  53 SW8       30.07F HX  94
CROSSVILLE     SUNNY     85  66  53 W12G17    30.11F
NASHVILLE      PTSUNNY   89  72  56 VRB7G16   30.01F HX  96
$$

...KEY TO REMARKS...
VSB - VISIBILITY IN MILES
WCI - WIND CHILL INDEX
HX  - HEAT INDEX

$$



USA.gov is the U.S. government's official web portal to all federal, state and local government web resources and services.